Year,Month,Day,Hour,Minute,Value (Times are PST for barometer in hPa)
2016,03,10,00,00,989.16
2016,03,10,00,01,989.16
2016,03,10,00,02,989.16
2016,03,10,00,03,989.16
2016,03,10,00,04,989.16
2016,03,10,00,05,989.16
2016,03,10,00,06,989.16
2016,03,10,00,07,989.16
2016,03,10,00,08,989.16
2016,03,10,00,09,989.16
2016,03,10,00,10,989.16
2016,03,10,00,11,989.16
2016,03,10,00,12,989.16
2016,03,10,00,13,989.16
2016,03,10,00,14,989.16
2016,03,10,00,15,988.72
2016,03,10,00,16,988.72
2016,03,10,00,17,988.72
2016,03,10,00,18,988.72
2016,03,10,00,19,988.72
2016,03,10,00,20,988.72
2016,03,10,00,21,988.72
2016,03,10,00,22,988.72
2016,03,10,00,23,988.72
2016,03,10,00,24,988.72
2016,03,10,00,25,988.72
2016,03,10,00,26,988.72
2016,03,10,00,27,988.72
2016,03,10,00,28,988.72
2016,03,10,00,29,988.72
2016,03,10,00,30,988.55
2016,03,10,00,31,988.55
2016,03,10,00,32,988.55
2016,03,10,00,33,988.55
2016,03,10,00,34,988.55
2016,03,10,00,35,988.55
2016,03,10,00,36,988.55
2016,03,10,00,37,988.55
2016,03,10,00,38,988.55
2016,03,10,00,39,988.55
2016,03,10,00,40,988.55
2016,03,10,00,41,988.55
2016,03,10,00,42,988.55
2016,03,10,00,43,988.55
2016,03,10,00,44,988.55
2016,03,10,00,45,988.59
2016,03,10,00,46,988.59
2016,03,10,00,47,988.59
2016,03,10,00,48,988.59
2016,03,10,00,49,988.59
2016,03,10,00,50,988.59
2016,03,10,00,51,988.59
2016,03,10,00,52,988.59
2016,03,10,00,53,988.59
2016,03,10,00,54,988.59
2016,03,10,00,55,988.59
2016,03,10,00,56,988.59
2016,03,10,00,57,988.59
2016,03,10,00,58,988.59
2016,03,10,00,59,988.59
2016,03,10,01,00,989.23
2016,03,10,01,01,989.23
2016,03,10,01,02,989.23
2016,03,10,01,03,989.23
2016,03,10,01,04,989.23
2016,03,10,01,05,989.23
2016,03,10,01,06,989.23
2016,03,10,01,07,989.23
2016,03,10,01,08,989.23
2016,03,10,01,09,989.23
2016,03,10,01,10,989.23
2016,03,10,01,11,989.23
2016,03,10,01,12,989.23
2016,03,10,01,13,989.23
2016,03,10,01,14,989.23
2016,03,10,01,15,990.28
2016,03,10,01,16,990.28
2016,03,10,01,17,990.28
2016,03,10,01,18,990.28
2016,03,10,01,19,990.28
2016,03,10,01,20,990.28
2016,03,10,01,21,990.28
2016,03,10,01,22,990.28
2016,03,10,01,23,990.28
2016,03,10,01,24,990.28
2016,03,10,01,25,990.28
2016,03,10,01,26,990.28
2016,03,10,01,27,990.28
2016,03,10,01,28,990.28
2016,03,10,01,29,990.28
2016,03,10,01,30,989.74
2016,03,10,01,31,989.74
2016,03,10,01,32,989.74
2016,03,10,01,33,989.74
2016,03,10,01,34,989.74
2016,03,10,01,35,989.74
2016,03,10,01,36,989.74
2016,03,10,01,37,989.74
2016,03,10,01,38,989.74
2016,03,10,01,39,989.74
2016,03,10,01,40,989.74
2016,03,10,01,41,989.74
2016,03,10,01,42,989.74
2016,03,10,01,43,989.74
2016,03,10,01,44,989.74
2016,03,10,01,45,989.16
2016,03,10,01,46,989.16
2016,03,10,01,47,989.16
2016,03,10,01,48,989.16
2016,03,10,01,49,989.16
2016,03,10,01,50,989.16
2016,03,10,01,51,989.16
2016,03,10,01,52,989.16
2016,03,10,01,53,989.16
2016,03,10,01,54,989.16
2016,03,10,01,55,989.16
2016,03,10,01,56,989.16
2016,03,10,01,57,989.16
2016,03,10,01,58,989.16
2016,03,10,01,59,989.16
2016,03,10,02,00,989.30
2016,03,10,02,01,989.30
2016,03,10,02,02,989.30
2016,03,10,02,03,989.30
2016,03,10,02,04,989.30
2016,03,10,02,05,989.30
2016,03,10,02,06,989.30
2016,03,10,02,07,989.30
2016,03,10,02,08,989.30
2016,03,10,02,09,989.30
2016,03,10,02,10,989.30
2016,03,10,02,11,989.30
2016,03,10,02,12,989.30
2016,03,10,02,13,989.30
2016,03,10,02,14,989.29
2016,03,10,02,15,989.10
2016,03,10,02,16,989.10
2016,03,10,02,17,989.10
2016,03,10,02,18,989.10
2016,03,10,02,19,989.10
2016,03,10,02,20,989.10
2016,03,10,02,21,989.10
2016,03,10,02,22,989.10
2016,03,10,02,23,989.10
2016,03,10,02,24,989.10
2016,03,10,02,25,989.10
2016,03,10,02,26,989.10
2016,03,10,02,27,989.10
2016,03,10,02,28,989.10
2016,03,10,02,29,989.10
2016,03,10,02,30,989.77
2016,03,10,02,31,989.77
2016,03,10,02,32,989.77
2016,03,10,02,33,989.77
2016,03,10,02,34,989.77
2016,03,10,02,35,989.77
2016,03,10,02,36,989.77
2016,03,10,02,37,989.77
2016,03,10,02,38,989.77
2016,03,10,02,39,989.77
2016,03,10,02,40,989.77
2016,03,10,02,41,989.77
2016,03,10,02,42,989.77
2016,03,10,02,43,989.77
2016,03,10,02,44,989.77
2016,03,10,02,45,989.64
2016,03,10,02,46,989.64
2016,03,10,02,47,989.64
2016,03,10,02,48,989.64
2016,03,10,02,49,989.64
2016,03,10,02,50,989.64
2016,03,10,02,51,989.64
2016,03,10,02,52,989.64
2016,03,10,02,53,989.64
2016,03,10,02,54,989.64
2016,03,10,02,55,989.64
2016,03,10,02,56,989.64
2016,03,10,02,57,989.64
2016,03,10,02,58,989.64
2016,03,10,02,59,989.64
2016,03,10,03,00,989.16
2016,03,10,03,01,989.16
2016,03,10,03,02,989.16
2016,03,10,03,03,989.16
2016,03,10,03,04,989.16
2016,03,10,03,05,989.16
2016,03,10,03,06,989.16
2016,03,10,03,07,989.16
2016,03,10,03,08,989.16
2016,03,10,03,09,989.16
2016,03,10,03,10,989.16
2016,03,10,03,11,989.16
2016,03,10,03,12,989.16
2016,03,10,03,13,989.16
2016,03,10,03,14,989.16
2016,03,10,03,15,990.08
2016,03,10,03,16,990.08
2016,03,10,03,17,990.08
2016,03,10,03,18,990.08
2016,03,10,03,19,990.08
2016,03,10,03,20,990.08
2016,03,10,03,21,990.08
2016,03,10,03,22,990.08
2016,03,10,03,23,990.08
2016,03,10,03,24,990.08
2016,03,10,03,25,990.08
2016,03,10,03,26,990.08
2016,03,10,03,27,990.08
2016,03,10,03,28,990.08
2016,03,10,03,29,990.08
2016,03,10,03,30,990.04
2016,03,10,03,31,990.04
2016,03,10,03,32,990.04
2016,03,10,03,33,990.04
2016,03,10,03,34,990.04
2016,03,10,03,35,990.04
2016,03,10,03,36,990.04
2016,03,10,03,37,990.04
2016,03,10,03,38,990.04
2016,03,10,03,39,990.04
2016,03,10,03,40,990.04
2016,03,10,03,41,990.04
2016,03,10,03,42,990.04
2016,03,10,03,43,990.04
2016,03,10,03,44,990.04
2016,03,10,03,45,990.21
2016,03,10,03,46,990.21
2016,03,10,03,47,990.21
2016,03,10,03,48,990.21
2016,03,10,03,49,990.21
2016,03,10,03,50,990.21
2016,03,10,03,51,990.21
2016,03,10,03,52,990.21
2016,03,10,03,53,990.21
2016,03,10,03,54,990.21
2016,03,10,03,55,990.21
2016,03,10,03,56,990.21
2016,03,10,03,57,990.21
2016,03,10,03,58,990.21
2016,03,10,03,59,990.21
2016,03,10,04,00,990.72
2016,03,10,04,01,990.72
2016,03,10,04,02,990.72
2016,03,10,04,03,990.72
2016,03,10,04,04,990.72
2016,03,10,04,05,990.72
2016,03,10,04,06,990.72
2016,03,10,04,07,990.72
2016,03,10,04,08,990.72
2016,03,10,04,09,990.72
2016,03,10,04,10,990.72
2016,03,10,04,11,990.72
2016,03,10,04,12,990.72
2016,03,10,04,13,990.72
2016,03,10,04,14,990.72
2016,03,10,04,15,990.79
2016,03,10,04,16,990.79
2016,03,10,04,17,990.79
2016,03,10,04,18,990.79
2016,03,10,04,19,990.79
2016,03,10,04,20,990.79
2016,03,10,04,21,990.79
2016,03,10,04,22,990.79
2016,03,10,04,23,990.79
2016,03,10,04,24,990.79
2016,03,10,04,25,990.79
2016,03,10,04,26,990.79
2016,03,10,04,27,990.79
2016,03,10,04,28,990.79
2016,03,10,04,29,990.79
2016,03,10,04,30,991.03
2016,03,10,04,31,991.03
2016,03,10,04,32,991.03
2016,03,10,04,33,991.03
2016,03,10,04,34,991.03
2016,03,10,04,35,991.03
2016,03,10,04,36,991.03
2016,03,10,04,37,991.03
2016,03,10,04,38,991.03
2016,03,10,04,39,991.03
2016,03,10,04,40,991.03
2016,03,10,04,41,991.03
2016,03,10,04,42,991.03
2016,03,10,04,43,991.03
2016,03,10,04,44,991.03
2016,03,10,04,45,991.43
2016,03,10,04,46,991.43
2016,03,10,04,47,991.43
2016,03,10,04,48,991.43
2016,03,10,04,49,991.43
2016,03,10,04,50,991.43
2016,03,10,04,51,991.43
2016,03,10,04,52,991.43
2016,03,10,04,53,991.43
2016,03,10,04,54,991.43
2016,03,10,04,55,991.43
2016,03,10,04,56,991.43
2016,03,10,04,57,991.43
2016,03,10,04,58,991.43
2016,03,10,04,59,991.43
2016,03,10,05,00,991.74
2016,03,10,05,01,991.74
2016,03,10,05,02,991.74
2016,03,10,05,03,991.74
2016,03,10,05,04,991.74
2016,03,10,05,05,991.74
2016,03,10,05,06,991.74
2016,03,10,05,07,991.74
2016,03,10,05,08,991.74
2016,03,10,05,09,991.74
2016,03,10,05,10,991.74
2016,03,10,05,11,991.74
2016,03,10,05,12,991.74
2016,03,10,05,13,991.74
2016,03,10,05,14,991.74
2016,03,10,05,15,991.84
2016,03,10,05,16,991.84
2016,03,10,05,17,991.84
2016,03,10,05,18,991.84
2016,03,10,05,19,991.84
2016,03,10,05,20,991.84
2016,03,10,05,21,991.84
2016,03,10,05,22,991.84
2016,03,10,05,23,991.84
2016,03,10,05,24,991.84
2016,03,10,05,25,991.84
2016,03,10,05,26,991.84
2016,03,10,05,27,991.84
2016,03,10,05,28,991.84
2016,03,10,05,29,991.84
2016,03,10,05,30,992.25
2016,03,10,05,31,992.25
2016,03,10,05,32,992.25
2016,03,10,05,33,992.25
2016,03,10,05,34,992.25
2016,03,10,05,35,992.25
2016,03,10,05,36,992.25
2016,03,10,05,37,992.25
2016,03,10,05,38,992.25
2016,03,10,05,39,992.25
2016,03,10,05,40,992.25
2016,03,10,05,41,992.25
2016,03,10,05,42,992.25
2016,03,10,05,43,992.25
2016,03,10,05,44,992.25
2016,03,10,05,45,992.35
2016,03,10,05,46,992.35
2016,03,10,05,47,992.35
2016,03,10,05,48,992.35
2016,03,10,05,49,992.35
2016,03,10,05,50,992.35
2016,03,10,05,51,992.35
2016,03,10,05,52,992.35
2016,03,10,05,53,992.35
2016,03,10,05,54,992.35
2016,03,10,05,55,992.35
2016,03,10,05,56,992.35
2016,03,10,05,57,992.35
2016,03,10,05,58,992.35
2016,03,10,05,59,992.35
2016,03,10,06,00,992.96
2016,03,10,06,01,992.96
2016,03,10,06,02,992.96
2016,03,10,06,03,992.96
2016,03,10,06,04,992.96
2016,03,10,06,05,992.96
2016,03,10,06,06,992.96
2016,03,10,06,07,992.96
2016,03,10,06,08,992.96
2016,03,10,06,09,992.96
2016,03,10,06,10,992.96
2016,03,10,06,11,992.96
2016,03,10,06,12,992.96
2016,03,10,06,13,992.96
2016,03,10,06,14,992.96
2016,03,10,06,15,992.96
2016,03,10,06,16,992.96
2016,03,10,06,17,992.96
2016,03,10,06,18,992.96
2016,03,10,06,19,992.96
2016,03,10,06,20,992.96
2016,03,10,06,21,992.96
2016,03,10,06,22,992.96
2016,03,10,06,23,992.96
2016,03,10,06,24,992.96
2016,03,10,06,25,992.96
2016,03,10,06,26,992.96
2016,03,10,06,27,992.96
2016,03,10,06,28,992.96
2016,03,10,06,29,992.96
2016,03,10,06,30,993.60
2016,03,10,06,31,993.60
2016,03,10,06,32,993.60
2016,03,10,06,33,993.60
2016,03,10,06,34,993.60
2016,03,10,06,35,993.60
2016,03,10,06,36,993.60
2016,03,10,06,37,993.60
2016,03,10,06,38,993.60
2016,03,10,06,39,993.60
2016,03,10,06,40,993.60
2016,03,10,06,41,993.60
2016,03,10,06,42,993.60
2016,03,10,06,43,993.60
2016,03,10,06,44,993.60
2016,03,10,06,45,994.14
2016,03,10,06,46,994.14
2016,03,10,06,47,994.14
2016,03,10,06,48,994.14
2016,03,10,06,49,994.14
2016,03,10,06,50,994.14
2016,03,10,06,51,994.14
2016,03,10,06,52,994.14
2016,03,10,06,53,994.14
2016,03,10,06,54,994.14
2016,03,10,06,55,994.14
2016,03,10,06,56,994.14
2016,03,10,06,57,994.14
2016,03,10,06,58,994.14
2016,03,10,06,59,994.14
2016,03,10,07,00,994.52
2016,03,10,07,01,994.52
2016,03,10,07,02,994.52
2016,03,10,07,03,994.52
2016,03,10,07,04,994.52
2016,03,10,07,05,994.52
2016,03,10,07,06,994.52
2016,03,10,07,07,994.52
2016,03,10,07,08,994.52
2016,03,10,07,09,994.52
2016,03,10,07,10,994.52
2016,03,10,07,11,994.52
2016,03,10,07,12,994.52
2016,03,10,07,13,994.52
2016,03,10,07,14,994.52
2016,03,10,07,15,995.36
2016,03,10,07,16,995.36
2016,03,10,07,17,995.36
2016,03,10,07,18,995.36
2016,03,10,07,19,995.36
2016,03,10,07,20,995.36
2016,03,10,07,21,995.36
2016,03,10,07,22,995.36
2016,03,10,07,23,995.36
2016,03,10,07,24,995.36
2016,03,10,07,25,995.36
2016,03,10,07,26,995.36
2016,03,10,07,27,995.36
2016,03,10,07,28,995.36
2016,03,10,07,29,995.36
2016,03,10,07,30,996.14
2016,03,10,07,31,996.14
2016,03,10,07,32,996.14
2016,03,10,07,33,996.14
2016,03,10,07,34,996.14
2016,03,10,07,35,996.14
2016,03,10,07,36,996.14
2016,03,10,07,37,996.14
2016,03,10,07,38,996.14
2016,03,10,07,39,996.14
2016,03,10,07,40,996.14
2016,03,10,07,41,996.14
2016,03,10,07,42,996.14
2016,03,10,07,43,996.14
2016,03,10,07,44,996.14
2016,03,10,07,45,996.55
2016,03,10,07,46,996.55
2016,03,10,07,47,996.55
2016,03,10,07,48,996.55
2016,03,10,07,49,996.55
2016,03,10,07,50,996.55
2016,03,10,07,51,996.55
2016,03,10,07,52,996.55
2016,03,10,07,53,996.55
2016,03,10,07,54,996.55
2016,03,10,07,55,996.55
2016,03,10,07,56,996.55
2016,03,10,07,57,996.55
2016,03,10,07,58,996.55
2016,03,10,07,59,996.55
2016,03,10,08,00,997.22
2016,03,10,08,01,997.22
2016,03,10,08,02,997.22
2016,03,10,08,03,997.22
2016,03,10,08,04,997.22
2016,03,10,08,05,997.22
2016,03,10,08,06,997.22
2016,03,10,08,07,997.22
2016,03,10,08,08,997.22
2016,03,10,08,09,997.22
2016,03,10,08,10,997.22
2016,03,10,08,11,997.22
2016,03,10,08,12,997.22
2016,03,10,08,13,997.22
2016,03,10,08,14,997.22
2016,03,10,08,15,998.00
2016,03,10,08,16,998.00
2016,03,10,08,17,998.00
2016,03,10,08,18,998.00
2016,03,10,08,19,998.00
2016,03,10,08,20,998.00
2016,03,10,08,21,998.00
2016,03,10,08,22,998.00
2016,03,10,08,23,998.00
2016,03,10,08,24,998.00
2016,03,10,08,25,998.00
2016,03,10,08,26,998.00
2016,03,10,08,27,998.00
2016,03,10,08,28,998.00
2016,03,10,08,29,998.00
2016,03,10,08,30,998.54
2016,03,10,08,31,998.54
2016,03,10,08,32,998.54
2016,03,10,08,33,998.54
2016,03,10,08,34,998.54
2016,03,10,08,35,998.54
2016,03,10,08,36,998.54
2016,03,10,08,37,998.54
2016,03,10,08,38,998.54
2016,03,10,08,39,998.54
2016,03,10,08,40,998.54
2016,03,10,08,41,998.54
2016,03,10,08,42,998.54
2016,03,10,08,43,998.54
2016,03,10,08,44,998.54
2016,03,10,08,45,998.82
2016,03,10,08,46,998.82
2016,03,10,08,47,998.82
2016,03,10,08,48,998.82
2016,03,10,08,49,998.82
2016,03,10,08,50,998.82
2016,03,10,08,51,998.82
2016,03,10,08,52,998.82
2016,03,10,08,53,998.82
2016,03,10,08,54,998.82
2016,03,10,08,55,998.82
2016,03,10,08,56,998.82
2016,03,10,08,57,998.82
2016,03,10,08,58,998.82
2016,03,10,08,59,998.82
2016,03,10,09,00,999.05
2016,03,10,09,01,999.05
2016,03,10,09,02,999.05
2016,03,10,09,03,999.05
2016,03,10,09,04,999.05
2016,03,10,09,05,999.05
2016,03,10,09,06,999.05
2016,03,10,09,07,999.05
2016,03,10,09,08,999.05
2016,03,10,09,09,999.05
2016,03,10,09,10,999.05
2016,03,10,09,11,999.05
2016,03,10,09,12,999.05
2016,03,10,09,13,999.05
2016,03,10,09,14,999.05
2016,03,10,09,15,999.83
2016,03,10,09,16,999.87
2016,03,10,09,17,999.87
2016,03,10,09,18,999.87
2016,03,10,09,19,999.87
2016,03,10,09,20,999.87
2016,03,10,09,21,999.87
2016,03,10,09,22,999.87
2016,03,10,09,23,999.87
2016,03,10,09,24,999.87
2016,03,10,09,25,999.87
2016,03,10,09,26,999.87
2016,03,10,09,27,999.87
2016,03,10,09,28,999.87
2016,03,10,09,29,999.87
2016,03,10,09,30,1000.55
2016,03,10,09,31,1000.58
2016,03,10,09,32,1000.58
2016,03,10,09,33,1000.58
2016,03,10,09,34,1000.58
2016,03,10,09,35,1000.58
2016,03,10,09,36,1000.58
2016,03,10,09,37,1000.58
2016,03,10,09,38,1000.58
2016,03,10,09,39,1000.58
2016,03,10,09,40,1000.58
2016,03,10,09,41,1000.58
2016,03,10,09,42,1000.58
2016,03,10,09,43,1000.58
2016,03,10,09,44,1000.58
2016,03,10,09,45,1000.58
2016,03,10,09,46,1000.58
2016,03,10,09,47,1000.58
2016,03,10,09,48,1000.58
2016,03,10,09,49,1000.58
2016,03,10,09,50,1000.58
2016,03,10,09,51,1000.58
2016,03,10,09,52,1000.58
2016,03,10,09,53,1000.58
2016,03,10,09,54,1000.58
2016,03,10,09,55,1000.58
2016,03,10,09,56,1000.58
2016,03,10,09,57,1000.58
2016,03,10,09,58,1000.58
2016,03,10,09,59,1000.58
2016,03,10,10,00,1001.08
2016,03,10,10,01,1001.08
2016,03,10,10,02,1001.08
2016,03,10,10,03,1001.08
2016,03,10,10,04,1001.08
2016,03,10,10,05,1001.08
2016,03,10,10,06,1001.08
2016,03,10,10,07,1001.08
2016,03,10,10,08,1001.08
2016,03,10,10,09,1001.08
2016,03,10,10,10,1001.08
2016,03,10,10,11,1001.08
2016,03,10,10,12,1001.08
2016,03,10,10,13,1001.08
2016,03,10,10,14,1001.08
2016,03,10,10,15,1001.12
2016,03,10,10,16,1001.12
2016,03,10,10,17,1001.12
2016,03,10,10,18,1001.12
2016,03,10,10,19,1001.12
2016,03,10,10,20,1001.12
2016,03,10,10,21,1001.12
2016,03,10,10,22,1001.12
2016,03,10,10,23,1001.12
2016,03,10,10,24,1001.12
2016,03,10,10,25,1001.12
2016,03,10,10,26,1001.12
2016,03,10,10,27,1001.12
2016,03,10,10,28,1001.12
2016,03,10,10,29,1001.12
2016,03,10,10,30,1001.52
2016,03,10,10,31,1001.52
2016,03,10,10,32,1001.52
2016,03,10,10,33,1001.52
2016,03,10,10,34,1001.52
2016,03,10,10,35,1001.52
2016,03,10,10,36,1001.52
2016,03,10,10,37,1001.52
2016,03,10,10,38,1001.52
2016,03,10,10,39,1001.52
2016,03,10,10,40,1001.52
2016,03,10,10,41,1001.52
2016,03,10,10,42,1001.52
2016,03,10,10,43,1001.52
2016,03,10,10,44,1001.52
2016,03,10,10,45,1002.13
2016,03,10,10,46,1002.13
2016,03,10,10,47,1002.13
2016,03,10,10,48,1002.13
2016,03,10,10,49,1002.13
2016,03,10,10,50,1002.13
2016,03,10,10,51,1002.13
2016,03,10,10,52,1002.13
2016,03,10,10,53,1002.13
2016,03,10,10,54,1002.13
2016,03,10,10,55,1002.13
2016,03,10,10,56,1002.13
2016,03,10,10,57,1002.13
2016,03,10,10,58,1002.13
2016,03,10,10,59,1002.13
2016,03,10,11,00,1002.47
2016,03,10,11,01,1002.47
2016,03,10,11,02,1002.47
2016,03,10,11,03,1002.47
2016,03,10,11,04,1002.47
2016,03,10,11,05,1002.47
2016,03,10,11,06,1002.47
2016,03,10,11,07,1002.47
2016,03,10,11,08,1002.47
2016,03,10,11,09,1002.47
2016,03,10,11,10,1002.47
2016,03,10,11,11,1002.47
2016,03,10,11,12,1002.47
2016,03,10,11,13,1002.47
2016,03,10,11,14,1002.47
2016,03,10,11,15,1002.68
2016,03,10,11,16,1002.68
2016,03,10,11,17,1002.68
2016,03,10,11,18,1002.68
2016,03,10,11,19,1002.68
2016,03,10,11,20,1002.68
2016,03,10,11,21,1002.68
2016,03,10,11,22,1002.68
2016,03,10,11,23,1002.68
2016,03,10,11,24,1002.68
2016,03,10,11,25,1002.68
2016,03,10,11,26,1002.68
2016,03,10,11,27,1002.68
2016,03,10,11,28,1002.68
2016,03,10,11,29,1002.68
2016,03,10,11,30,1003.13
2016,03,10,11,31,1003.15
2016,03,10,11,32,1003.15
2016,03,10,11,33,1003.15
2016,03,10,11,34,1003.15
2016,03,10,11,35,1003.15
2016,03,10,11,36,1003.15
2016,03,10,11,37,1003.15
2016,03,10,11,38,1003.15
2016,03,10,11,39,1003.15
2016,03,10,11,40,1003.15
2016,03,10,11,41,1003.15
2016,03,10,11,42,1003.15
2016,03,10,11,43,1003.15
2016,03,10,11,44,1003.15
2016,03,10,11,45,1003.29
2016,03,10,11,46,1003.29
2016,03,10,11,47,1003.29
2016,03,10,11,48,1003.29
2016,03,10,11,49,1003.29
2016,03,10,11,50,1003.29
2016,03,10,11,51,1003.29
2016,03,10,11,52,1003.29
2016,03,10,11,53,1003.29
2016,03,10,11,54,1003.29
2016,03,10,11,55,1003.29
2016,03,10,11,56,1003.29
2016,03,10,11,57,1003.29
2016,03,10,11,58,1003.29
2016,03,10,11,59,1003.29
2016,03,10,12,00,1004.10
2016,03,10,12,01,1004.10
2016,03,10,12,02,1004.10
2016,03,10,12,03,1004.10
2016,03,10,12,04,1004.10
2016,03,10,12,05,1004.10
2016,03,10,12,06,1004.10
2016,03,10,12,07,1004.10
2016,03,10,12,08,1004.10
2016,03,10,12,09,1004.10
2016,03,10,12,10,1004.10
2016,03,10,12,11,1004.10
2016,03,10,12,12,1004.10
2016,03,10,12,13,1004.10
2016,03,10,12,14,1004.10
2016,03,10,12,15,1004.10
2016,03,10,12,16,1004.10
2016,03,10,12,17,1004.10
2016,03,10,12,18,1004.10
2016,03,10,12,19,1004.10
2016,03,10,12,20,1004.10
2016,03,10,12,21,1004.10
2016,03,10,12,22,1004.10
2016,03,10,12,23,1004.10
2016,03,10,12,24,1004.10
2016,03,10,12,25,1004.10
2016,03,10,12,26,1004.10
2016,03,10,12,27,1004.10
2016,03,10,12,28,1004.10
2016,03,10,12,29,1004.10
2016,03,10,12,30,1004.34
2016,03,10,12,31,1004.34
2016,03,10,12,32,1004.34
2016,03,10,12,33,1004.34
2016,03,10,12,34,1004.34
2016,03,10,12,35,1004.34
2016,03,10,12,36,1004.34
2016,03,10,12,37,1004.34
2016,03,10,12,38,1004.34
2016,03,10,12,39,1004.34
2016,03,10,12,40,1004.34
2016,03,10,12,41,1004.34
2016,03,10,12,42,1004.34
2016,03,10,12,43,1004.34
2016,03,10,12,44,1004.34
2016,03,10,12,45,1004.72
2016,03,10,12,46,1004.74
2016,03,10,12,47,1004.74
2016,03,10,12,48,1004.74
2016,03,10,12,49,1004.74
2016,03,10,12,50,1004.74
2016,03,10,12,51,1004.74
2016,03,10,12,52,1004.74
2016,03,10,12,53,1004.74
2016,03,10,12,54,1004.74
2016,03,10,12,55,1004.74
2016,03,10,12,56,1004.74
2016,03,10,12,57,1004.74
2016,03,10,12,58,1004.74
2016,03,10,12,59,1004.74
2016,03,10,13,00,1004.84
2016,03,10,13,01,1004.84
2016,03,10,13,02,1004.84
2016,03,10,13,03,1004.84
2016,03,10,13,04,1004.84
2016,03,10,13,05,1004.84
2016,03,10,13,06,1004.84
2016,03,10,13,07,1004.84
2016,03,10,13,08,1004.84
2016,03,10,13,09,1004.84
2016,03,10,13,10,1004.84
2016,03,10,13,11,1004.84
2016,03,10,13,12,1004.84
2016,03,10,13,13,1004.84
2016,03,10,13,14,1004.84
2016,03,10,13,15,1005.18
2016,03,10,13,16,1005.18
2016,03,10,13,17,1005.18
2016,03,10,13,18,1005.18
2016,03,10,13,19,1005.18
2016,03,10,13,20,1005.18
2016,03,10,13,21,1005.18
2016,03,10,13,22,1005.18
2016,03,10,13,23,1005.18
2016,03,10,13,24,1005.18
2016,03,10,13,25,1005.18
2016,03,10,13,26,1005.18
2016,03,10,13,27,1005.18
2016,03,10,13,28,1005.18
2016,03,10,13,29,1005.18
2016,03,10,13,30,1005.49
2016,03,10,13,31,1005.49
2016,03,10,13,32,1005.49
2016,03,10,13,33,1005.49
2016,03,10,13,34,1005.49
2016,03,10,13,35,1005.49
2016,03,10,13,36,1005.49
2016,03,10,13,37,1005.49
2016,03,10,13,38,1005.49
2016,03,10,13,39,1005.49
2016,03,10,13,40,1005.49
2016,03,10,13,41,1005.49
2016,03,10,13,42,1005.49
2016,03,10,13,43,1005.49
2016,03,10,13,44,1005.49
2016,03,10,13,45,1005.49
2016,03,10,13,46,1005.49
2016,03,10,13,47,1005.49
2016,03,10,13,48,1005.49
2016,03,10,13,49,1005.49
2016,03,10,13,50,1005.49
2016,03,10,13,51,1005.49
2016,03,10,13,52,1005.49
2016,03,10,13,53,1005.49
2016,03,10,13,54,1005.49
2016,03,10,13,55,1005.49
2016,03,10,13,56,1005.49
2016,03,10,13,57,1005.49
2016,03,10,13,58,1005.49
2016,03,10,13,59,1005.49
2016,03,10,14,00,1005.65
2016,03,10,14,01,1005.66
2016,03,10,14,02,1005.66
2016,03,10,14,03,1005.66
2016,03,10,14,04,1005.66
2016,03,10,14,05,1005.66
2016,03,10,14,06,1005.66
2016,03,10,14,07,1005.66
2016,03,10,14,08,1005.66
2016,03,10,14,09,1005.66
2016,03,10,14,10,1005.66
2016,03,10,14,11,1005.66
2016,03,10,14,12,1005.66
2016,03,10,14,13,1005.66
2016,03,10,14,14,1005.66
2016,03,10,14,15,1005.96
2016,03,10,14,16,1005.96
2016,03,10,14,17,1005.96
2016,03,10,14,18,1005.96
2016,03,10,14,19,1005.96
2016,03,10,14,20,1005.96
2016,03,10,14,21,1005.96
2016,03,10,14,22,1005.96
2016,03,10,14,23,1005.96
2016,03,10,14,24,1005.96
2016,03,10,14,25,1005.96
2016,03,10,14,26,1005.96
2016,03,10,14,27,1005.96
2016,03,10,14,28,1005.96
2016,03,10,14,29,1005.96
2016,03,10,14,30,1006.30
2016,03,10,14,31,1006.30
2016,03,10,14,32,1006.30
2016,03,10,14,33,1006.30
2016,03,10,14,34,1006.30
2016,03,10,14,35,1006.30
2016,03,10,14,36,1006.30
2016,03,10,14,37,1006.30
2016,03,10,14,38,1006.30
2016,03,10,14,39,1006.30
2016,03,10,14,40,1006.30
2016,03,10,14,41,1006.30
2016,03,10,14,42,1006.30
2016,03,10,14,43,1006.30
2016,03,10,14,44,1006.30
2016,03,10,14,45,1006.75
2016,03,10,14,46,1006.77
2016,03,10,14,47,1006.77
2016,03,10,14,48,1006.77
2016,03,10,14,49,1006.77
2016,03,10,14,50,1006.77
2016,03,10,14,51,1006.77
2016,03,10,14,52,1006.77
2016,03,10,14,53,1006.77
2016,03,10,14,54,1006.77
2016,03,10,14,55,1006.77
2016,03,10,14,56,1006.77
2016,03,10,14,57,1006.77
2016,03,10,14,58,1006.77
2016,03,10,14,59,1006.77
2016,03,10,15,00,1007.13
2016,03,10,15,01,1007.15
2016,03,10,15,02,1007.15
2016,03,10,15,03,1007.15
2016,03,10,15,04,1007.15
2016,03,10,15,05,1007.15
2016,03,10,15,06,1007.15
2016,03,10,15,07,1007.15
2016,03,10,15,08,1007.15
2016,03,10,15,09,1007.15
2016,03,10,15,10,1007.15
2016,03,10,15,11,1007.15
2016,03,10,15,12,1007.15
2016,03,10,15,13,1007.15
2016,03,10,15,14,1007.15
2016,03,10,15,15,1007.35
2016,03,10,15,16,1007.35
2016,03,10,15,17,1007.35
2016,03,10,15,18,1007.35
2016,03,10,15,19,1007.35
2016,03,10,15,20,1007.35
2016,03,10,15,21,1007.35
2016,03,10,15,22,1007.35
2016,03,10,15,23,1007.35
2016,03,10,15,24,1007.35
2016,03,10,15,25,1007.35
2016,03,10,15,26,1007.35
2016,03,10,15,27,1007.35
2016,03,10,15,28,1007.35
2016,03,10,15,29,1007.35
2016,03,10,15,30,1007.59
2016,03,10,15,31,1007.59
2016,03,10,15,32,1007.59
2016,03,10,15,33,1007.59
2016,03,10,15,34,1007.59
2016,03,10,15,35,1007.59
2016,03,10,15,36,1007.59
2016,03,10,15,37,1007.59
2016,03,10,15,38,1007.59
2016,03,10,15,39,1007.59
2016,03,10,15,40,1007.59
2016,03,10,15,41,1007.59
2016,03,10,15,42,1007.59
2016,03,10,15,43,1007.59
2016,03,10,15,44,1007.59
2016,03,10,15,45,1007.88
2016,03,10,15,46,1007.89
2016,03,10,15,47,1007.89
2016,03,10,15,48,1007.89
2016,03,10,15,49,1007.89
2016,03,10,15,50,1007.89
2016,03,10,15,51,1007.89
2016,03,10,15,52,1007.89
2016,03,10,15,53,1007.89
2016,03,10,15,54,1007.89
2016,03,10,15,55,1007.89
2016,03,10,15,56,1007.89
2016,03,10,15,57,1007.89
2016,03,10,15,58,1007.89
2016,03,10,15,59,1007.89
2016,03,10,16,00,1008.40
2016,03,10,16,01,1008.40
2016,03,10,16,02,1008.40
2016,03,10,16,03,1008.40
2016,03,10,16,04,1008.40
2016,03,10,16,05,1008.40
2016,03,10,16,06,1008.40
2016,03,10,16,07,1008.40
2016,03,10,16,08,1008.40
2016,03,10,16,09,1008.40
2016,03,10,16,10,1008.40
2016,03,10,16,11,1008.40
2016,03,10,16,12,1008.40
2016,03,10,16,13,1008.40
2016,03,10,16,14,1008.40
2016,03,10,16,15,1008.85
2016,03,10,16,16,1008.87
2016,03,10,16,17,1008.87
2016,03,10,16,18,1008.87
2016,03,10,16,19,1008.87